This is the latest recevied weather packets stored in our database for station/object IW2HNF-3. If no packets are shown the sender has not sent any weather packets the latest 10 day(s).
| Time | Temp. | Humidity | Pressure | Rain* | Wind** | Luminosity | Snow |
|---|---|---|---|---|---|---|---|
| 1777638039 | 17.78° C | 26% | 1025.9 hPa | 0 mm | - | - | - |
| 1777637463 | 17.78° C | 26% | 1025.9 hPa | 0 mm | - | - | - |
| 1777637271 | 17.78° C | 26% | 1026.1 hPa | 0 mm | - | - | - |
| 1777636263 | 17.78° C | 27% | 1026.1 hPa | 0 mm | - | - | - |
| 1777635064 | 17.22° C | 26% | 1026.3 hPa | 0 mm | - | - | - |
| 1777633863 | 17.78° C | 26% | 1026.6 hPa | 0 mm | - | - | - |
| 1777633239 | 17.22° C | 28% | 1026.6 hPa | 0 mm | - | - | - |
| 1777632663 | 17.22° C | 28% | 1026.7 hPa | 0 mm | - | - | - |
| 1777632039 | 16.67° C | 26% | 1026.7 hPa | 0 mm | - | - | - |
| 1777631463 | 16.67° C | 27% | 1026.8 hPa | 0 mm | - | - | - |
| 1777630262 | 16.67° C | 27% | 1027 hPa | 0 mm | - | - | - |
| 1777630070 | 16.67° C | 27% | 1027 hPa | 0 mm | - | - | - |
| 1777629062 | 16.67° C | 28% | 1026.9 hPa | 0 mm | - | - | - |
| 1777628439 | 16.67° C | 30% | 1027 hPa | 0 mm | - | - | - |
| 1777627863 | 16.11° C | 29% | 1027 hPa | 0 mm | - | - | - |
| 1777627238 | 16.67° C | 31% | 1027.1 hPa | 0 mm | - | - | - |
| 1777626663 | 16.11° C | 31% | 1027 hPa | 0 mm | - | - | - |
| 1777626039 | 16.11° C | 32% | 1027.1 hPa | 0 mm | - | - | - |
| 1777625463 | 15.56° C | 33% | 1027 hPa | 0 mm | - | - | - |
| 1777624838 | 15.56° C | 32% | 1027 hPa | 0 mm | - | - | - |
| 1777624262 | 15.56° C | 32% | 1026.9 hPa | 0 mm | - | - | - |
| 1777623639 | 15.56° C | 32% | 1026.8 hPa | 0 mm | - | - | - |
| 1777623064 | 15° C | 33% | 1026.9 hPa | 0 mm | - | - | - |
| 1777622919 | 15° C | 33% | 1026.8 hPa | 0 mm | - | - | - |
| 1777621863 | 14.44° C | 33% | 1026.8 hPa | 0 mm | - | - | - |
* Rain latest hour (hover to see other rain measurements)
** Current wind speed in m/s (hover to see current wind gust speed)